Content
SEND FEEDBACK

Daily
Averages
Monthly
Summary
United States of America

BARTON HILLS, MICHIGAN


Home > North America > United States > Michigan
Elevation: 899 feet     Latitude: 42 18N     Longitude: 083 43W

WEATHER
 
SELECT A DAY
Number of Records: 209,163;   Date Range: 1/1/95 - 12/26/14
 
SHARE

PRINT THIS DATA

[ ← Previous Day ]
WEATHER ALMANAC - MARCH 5, 2013
[ Next Day → ]
[ °C ]   °F
Weather ElementAverageHighLow
Temperature27.7 °F34 °F (2:53 pm)19.9 °F (6:53 am)
Dewpoint21.1 °F25 °F (7:53 pm)17.1 °F (2:53 am)
Humidity76.6 %92 % (6:53 am)61 % (2:53 pm)
Barometer29.97 in30.12 in (2:53 am)29.84 in (7:53 pm)
Wind Speed9.9 mph15 mph (11:53 pm)
Wind Gust24.2 mph (9:53 pm)
Weather ElementAverage
Visibility9.6 mi
Wind DirectionENE (79.2 °)

Weather ElementTotal
Precipitation---
Heating Degree Days38.1 (Base 65)
Averaged from 25 records on March 5, 2013
WEATHER CONDITIONS BREAKOUT
WIND DIRECTION BREAKOUT
WEATHER BY HOUR - MARCH 5, 2013
[ °C ]   °F
Local TimeTemperatureDewpointHumidityBarometerVisibilityWind DirectionWind SpeedGust SpeedPrecipitationEventsConditions
2:53 AM21.9 °F17.1 °F82 %30.12 in10.0 miENE (70°)5.8 mphClear
3:53 AM21.0 °F17.1 °F85 %30.10 in10.0 miENE (60°)4.6 mphClear
4:53 AM21.0 °F17.1 °F85 %30.09 in9.0 miENE (70°)5.8 mphClear
5:53 AM21.0 °F18.0 °F88 %30.08 in9.0 miENE (70°)6.9 mphClear
6:53 AM19.9 °F18.0 °F92 %30.08 in6.0 miENE (70°)6.9 mphClear
7:12 AM21.2 °F17.6 °F86 %30.04 in5.0 miEast (80°)5.8 mphMostly Cloudy
8:48 AM24.8 °F19.4 °F80 %30.04 in10.0 miEast (90°)10.4 mphOvercast
8:53 AM24.1 °F19.0 °F81 %30.08 in10.0 miEast (100°)5.8 mphOvercast
9:53 AM26.1 °F21.0 °F81 %30.06 in10.0 miESE (120°)6.9 mphOvercast
10:12 AM26.6 °F21.2 °F80 %30.02 in10.0 miESE (120°)10.4 mphMostly Cloudy
10:53 AM28.9 °F21.0 °F72 %30.04 in10.0 miESE (110°)11.5 mphMostly Cloudy
11:07 AM28.4 °F21.2 °F74 %30.00 in10.0 miEast (100°)9.2 mphScattered Clouds
11:53 AM30.9 °F21.0 °F67 %30.00 in10.0 miEast (90°)13.8 mph18.4 mphPartly Cloudy
12:53 PM32.0 °F23.0 °F69 %29.99 in10.0 miEast (90°)11.5 mph18.4 mphClear
1:53 PM33.1 °F23.0 °F66 %29.94 in10.0 miESE (110°)11.5 mphClear
2:53 PM34.0 °F21.9 °F61 %29.91 in10.0 miEast (80°)13.8 mph20.7 mphMostly Cloudy
3:53 PM34.0 °F21.9 °F61 %29.88 in10.0 miEast (80°)9.2 mph18.4 mphPartly Cloudy
4:53 PM33.1 °F24.1 °F70 %29.86 in10.0 miESE (110°)13.8 mph20.7 mphClear
5:53 PM32.0 °F24.1 °F73 %29.86 in10.0 miEast (100°)9.2 mphMostly Cloudy
6:53 PM32.0 °F24.1 °F73 %29.85 in10.0 miENE (70°)10.4 mph20.7 mphOvercast
7:53 PM32.0 °F25.0 °F75 %29.84 in10.0 miENE (60°)10.4 mphOvercast
8:53 PM30.0 °F24.1 °F79 %29.84 in10.0 miNE (40°)10.4 mph20.7 mphOvercast
9:53 PM28.9 °F23.0 °F78 %29.85 in10.0 miNNE (30°)13.8 mph24.2 mphOvercast
10:53 PM28.0 °F21.9 °F78 %29.85 in10.0 miNNE (30°)13.8 mphClear
11:53 PM28.0 °F21.9 °F78 %29.85 in10.0 miNNE (30°)15.0 mphPartly Cloudy
Hourly data recorded from KARB, located miles away from Barton Hills, Michigan







STORIES FROM OUR PARTNERS